Weather History for Hutchinson, MN

Change the Weather History Date:

Wednesday, December 28, 2011

  Actual Average Record
Temperature  
Mean Temperature 29 °F -  
Max Temperature 39 °F 23 °F 91 °F (2003)
Min Temperature 19 °F 8 °F -23 °F (1993)
Degree Days  
Heating Degree Days 36    
Moisture  
Dew Point 20 °F    
Average Humidity 71    
Maximum Humidity 86    
Minimum Humidity 53    
Precipitation  
Precipitation 0.00 in - - ()
Sea Level Pressure  
Sea Level Pressure 29.82 in    
Wind  
Wind Speed 4 mph (SSE)    
Max Wind Speed 13 mph    
Max Gust Speed -    
Visibility 10 miles    
Events      
Averages and records for this station are not official NWS values.
T = Trace of Precipitation, MM = Missing Value Source: NWS Daily Summary

Daily Weather History Graph

Daily Weather History Graph

Search for Another Location

Airport:

Trip Planner

Search our weather history database for the weather conditions in past years. The results will help you decide how hot, cold, wet, or windy it might be!

Date:

Astronomy

Dec. 28, 2011 Rise Set
Actual Time 7:54 AM CST 4:43 PM CST
Civil Twilight 7:21 AM CST 5:17 PM CST
Nautical Twilight 6:43 AM CST 5:54 PM CST
Astronomical Twilight 6:08 AM CST 6:29 PM CST
Moon 10:10 AM CST (12/28) 9:32 PM CST (12/28)
Length of Visible Light 9h 56m
Length of Day
8h 48m
Waxing Crescent, 18% of the Moon is Illuminated
Dec 28
Waxing Crescent
Jan 1
First Quarter
Jan 9
Full
Jan 16
Last Quarter
Jan 23
New

Hourly Weather History & Observations

Time (CST) Temp. Windchill Dew Point Humidity Pressure Visibility Wind Dir Wind Speed Gust Speed Precip Events Conditions
12:13 AM 19.6 °F - 14.5 °F 81% 29.99 in 10.0 mi Calm Calm - N/A   Clear
12:33 AM 20.8 °F - 15.3 °F 79% 29.98 in 10.0 mi Calm Calm - N/A   Mostly Cloudy
12:52 AM 21.0 °F - 16.3 °F 82% 29.98 in 10.0 mi Calm Calm - N/A   Overcast
1:13 AM 22.1 °F - 16.5 °F 79% 29.96 in 10.0 mi Calm Calm - N/A   Overcast
1:33 AM 22.1 °F - 16.0 °F 77% 29.96 in 10.0 mi Calm Calm - N/A   Overcast
1:52 AM 22.1 °F - 16.2 °F 78% 29.96 in 10.0 mi Calm Calm - N/A   Overcast
2:13 AM 22.1 °F - 16.0 °F 77% 29.95 in 10.0 mi Calm Calm - N/A   Overcast
2:33 AM 22.1 °F - 16.3 °F 79% 29.96 in 10.0 mi Calm Calm - N/A   Overcast
2:52 AM 22.1 °F 15.9 °F 16.2 °F 78% 29.96 in 10.0 mi SE 4.6 mph - N/A   Overcast
3:13 AM 22.1 °F 14.7 °F 16.2 °F 78% 29.94 in 10.0 mi SE 5.8 mph - N/A   Scattered Clouds
3:32 AM 22.1 °F 15.9 °F 16.0 °F 77% 29.93 in 10.0 mi SE 4.6 mph - N/A   Mostly Cloudy
3:53 AM 22.1 °F 15.9 °F 16.2 °F 78% 29.93 in 10.0 mi SE 4.6 mph - N/A   Mostly Cloudy
4:12 AM 22.1 °F 14.7 °F 16.5 °F 79% 29.92 in 10.0 mi SE 5.8 mph - N/A   Scattered Clouds
4:33 AM 22.1 °F 15.9 °F 16.7 °F 80% 29.91 in 10.0 mi SE 4.6 mph - N/A   Scattered Clouds
4:52 AM 22.1 °F 14.7 °F 16.7 °F 80% 29.89 in 10.0 mi SE 5.8 mph - N/A   Mostly Cloudy
5:13 AM 21.2 °F 12.6 °F 16.5 °F 82% 29.88 in 10.0 mi SE 6.9 mph - N/A   Scattered Clouds
5:32 AM 20.8 °F 14.4 °F 16.2 °F 82% 29.88 in 10.0 mi SE 4.6 mph - N/A   Clear
5:53 AM 20.3 °F 12.5 °F 15.8 °F 83% 29.87 in 10.0 mi SE 5.8 mph - N/A   Mostly Cloudy
6:12 AM 19.8 °F 10.8 °F 15.6 °F 84% 29.87 in 10.0 mi SE 6.9 mph - N/A   Scattered Clouds
6:32 AM 19.4 °F 11.5 °F 15.8 °F 86% 29.87 in 10.0 mi SE 5.8 mph - N/A   Clear
6:53 AM 20.5 °F 12.8 °F 16.9 °F 86% 29.86 in 10.0 mi SE 5.8 mph - N/A   Mostly Cloudy
7:12 AM 20.3 °F 10.6 °F 16.7 °F 86% 29.85 in 10.0 mi SE 8.1 mph - N/A   Mostly Cloudy
7:33 AM 20.3 °F 9.8 °F 16.7 °F 86% 29.84 in 10.0 mi SE 9.2 mph - N/A   Scattered Clouds
7:52 AM 20.3 °F 10.6 °F 16.7 °F 86% 29.83 in 10.0 mi SE 8.1 mph - N/A   Clear
8:13 AM 20.8 °F 10.4 °F 16.2 °F 82% 29.83 in 10.0 mi SE 9.2 mph - N/A   Clear
8:33 AM 22.1 °F 14.7 °F 16.3 °F 79% 29.83 in 10.0 mi SSE 5.8 mph - N/A   Clear
8:52 AM 22.8 °F 14.5 °F 16.7 °F 77% 29.82 in 10.0 mi SSE 6.9 mph - N/A   Clear
9:13 AM 24.6 °F 17.7 °F 18.0 °F 76% 29.82 in 10.0 mi SSE 5.8 mph - N/A   Clear
9:33 AM 26.6 °F 19.1 °F 19.2 °F 74% 29.82 in 10.0 mi SSE 6.9 mph - N/A   Clear
9:52 AM 28.0 °F 19.3 °F 20.1 °F 72% 29.81 in 10.0 mi South 9.2 mph - N/A   Clear
10:13 AM 29.7 °F 19.6 °F 20.8 °F 70% 29.81 in 10.0 mi South 12.7 mph - N/A   Clear
10:32 AM 29.7 °F 20.7 °F 20.3 °F 68% 29.81 in 10.0 mi South 10.4 mph - N/A   Clear
10:53 AM 32.0 °F 23.6 °F 22.5 °F 68% 29.79 in 10.0 mi South 10.4 mph - N/A   Clear
11:13 AM 34.3 °F 27.0 °F 23.9 °F 66% 29.79 in 10.0 mi SSW 9.2 mph - N/A   Clear
11:32 AM 34.3 °F 29.2 °F 23.4 °F 64% 29.78 in 10.0 mi South 5.8 mph - N/A   Clear
11:53 AM 34.3 °F 27.0 °F 22.8 °F 63% 29.77 in 10.0 mi SW 9.2 mph - N/A   Clear
12:12 PM 36.9 °F 32.2 °F 24.1 °F 60% 29.76 in 10.0 mi SW 5.8 mph - N/A   Clear
12:33 PM 36.9 °F 32.2 °F 23.7 °F 59% 29.75 in 10.0 mi SSW 5.8 mph - N/A   Clear
12:53 PM 37.0 °F 31.6 °F 23.2 °F 57% 29.74 in 10.0 mi WSW 6.9 mph - N/A   Clear
1:12 PM 39.4 °F 37.2 °F 24.6 °F 56% 29.73 in 10.0 mi South 3.5 mph - N/A   Clear
1:33 PM 39.4 °F 37.2 °F 24.6 °F 56% 29.72 in 10.0 mi SW 3.5 mph - N/A   Clear
1:53 PM 39.2 °F 35.9 °F 24.6 °F 56% 29.72 in 10.0 mi South 4.6 mph - N/A   Clear
2:12 PM 39.4 °F 37.2 °F 23.9 °F 54% 29.72 in 10.0 mi SW 3.5 mph - N/A   Clear
2:33 PM 39.9 °F 35.8 °F 23.9 °F 53% 29.72 in 10.0 mi SSW 5.8 mph - N/A   Clear
2:52 PM 39.4 °F 36.1 °F 23.9 °F 54% 29.72 in 10.0 mi SW 4.6 mph - N/A   Clear
3:13 PM 39.4 °F 36.1 °F 23.9 °F 54% 29.72 in 10.0 mi SSW 4.6 mph - N/A   Clear
3:32 PM 39.4 °F 36.1 °F 24.1 °F 54% 29.72 in 10.0 mi SW 4.6 mph - N/A   Clear
3:53 PM 39.2 °F - 25.3 °F 58% 29.72 in 10.0 mi Calm Calm - N/A   Clear
4:13 PM 37.4 °F - 23.9 °F 58% 29.71 in 10.0 mi Calm Calm - N/A   Clear
4:32 PM 36.9 °F - 24.6 °F 61% 29.72 in 10.0 mi Calm Calm - N/A   Scattered Clouds
4:53 PM 36.0 °F - 24.4 °F 63% 29.71 in 10.0 mi Calm Calm - N/A   Scattered Clouds
5:13 PM 34.3 °F 31.4 °F 23.9 °F 66% 29.70 in 10.0 mi SE 3.5 mph - N/A   Clear
5:32 PM 34.3 °F 30.2 °F 24.3 °F 67% 29.69 in 10.0 mi SE 4.6 mph - N/A   Clear
5:53 PM 34.3 °F - 24.8 °F 68% 29.68 in 10.0 mi Calm Calm - N/A   Scattered Clouds
6:13 PM 34.3 °F 30.2 °F 23.9 °F 66% 29.68 in 10.0 mi SSE 4.6 mph - N/A   Overcast
6:33 PM 34.3 °F 31.4 °F 24.4 °F 67% 29.67 in 10.0 mi SSE 3.5 mph - N/A   Overcast
6:52 PM 34.3 °F - 24.4 °F 67% 29.67 in 10.0 mi Calm Calm - N/A   Overcast
7:32 PM 36.1 °F 33.5 °F 25.9 °F 66% 29.64 in 10.0 mi SE 3.5 mph - N/A   Mostly Cloudy
7:52 PM 36.9 °F 34.3 °F 25.7 °F 64% 29.64 in 10.0 mi SSE 3.5 mph - N/A   Overcast
8:13 PM 36.9 °F - 26.1 °F 65% 29.64 in 10.0 mi Calm Calm - N/A   Overcast
8:32 PM 36.9 °F - 26.1 °F 65% 29.62 in 10.0 mi Calm Calm - N/A   Overcast
8:53 PM 36.9 °F 32.2 °F 25.7 °F 64% 29.61 in 10.0 mi SSE 5.8 mph - N/A   Overcast
9:13 PM 36.9 °F 34.3 °F 27.9 °F 70% 29.59 in 10.0 mi SE 3.5 mph - N/A   Overcast
9:33 PM 36.9 °F - 29.8 °F 76% 29.57 in 10.0 mi Calm Calm - N/A   Overcast
9:53 PM 36.9 °F 33.1 °F 30.2 °F 77% 29.56 in 10.0 mi ESE 4.6 mph - N/A   Overcast
10:13 PM 35.6 °F - 29.1 °F 77% 29.55 in 10.0 mi Calm Calm - N/A   Overcast
10:33 PM 34.7 °F - 28.4 °F 78% 29.54 in 10.0 mi Calm Calm - N/A   Overcast
10:52 PM 35.8 °F 30.1 °F 29.3 °F 77% 29.52 in 10.0 mi SE 6.9 mph - N/A   Overcast
11:13 PM 36.9 °F - 30.0 °F 76% 29.50 in 10.0 mi Calm Calm - N/A   Overcast
11:33 PM 36.9 °F 31.4 °F 29.3 °F 74% 29.49 in 10.0 mi SSE 6.9 mph - N/A   Overcast
11:52 PM 36.9 °F - 29.7 °F 75% 29.46 in 10.0 mi Calm Calm - N/A   Scattered Clouds